EHI
3 3 3 3 4 5 5 5 5 4 4 3 1 0 0 0 1 0 0 1 2 2 3 3 2 1 1 2 3 3 2 1 0 0 0 0 0 0 1 2 3 3 3
4 3 3 2 3 3 5 5 4 3 3 3 2 1 0 0 1 0 0 0 1 1 2 3 2 2 2 2 3 2 1 0 0 0 0 0 0 0 0 1 2 3 3
5 4 2 1 1 2 3 3 2 2 1 1 1 1 0 0 0 0 0 0 0 0 1 1 1 2 3 3 3 2 1 0 0 0 0 0 1 1 1 0 1 2 2
6 3 2 1 0 0 1 1 1 1 0 0 0 0 0 0 0 0 0 0 0 0 0 0 0 1 2 2 2 2 1 0 0 0 0 0 1 2 1 0 0 1 1
3 2 1 1 0 0 0 0 0 0 0 0 0 0 0 0 0 0 0 0 0 0 0 0 0 0 1 1 1 1 0 0 0 0 0 0 0 1 1 0 0 0 1
1 0 0 0 0 0 0 0 0 0 0 0 0 0 0 0 0 0 0 0 0 0 0 0 0 0 0 0 0 0 0 0 0 0 1 2 1 0 0 0 0 0 1
0 0 0 0 0 0 0 0 0 0 0 0 0 0 0 0 0 0 0 0 0 0 0 0 0 0 0 0 0 0 0 0 0 1 3 4 2 0 0 0 0 0 0
0 0 0 0 0 0 0 0 0 0 0 0 0 0 0 0 0 0 0 0 0 0 0 0 0 0 0 0 0 0 0 0 0 1 3 3 2 0 0 0 0 0 0
0 0 0 0 0 0 0 0 0 0 0 0 0 0 0 0 0 0 0 0 0 0 0 0 0 0 0 0 0 0 0 0 0 1 2 1 0 0 0 0 0 0 0
0 0 0 0 0 0 0 0 0 0 0 0 0 0 0 0 0 0 0 0 0 0 0 0 0 0 0 0 0 0 0 0 0 0 0 0 0 0 0 0 0 0 0
0 0 0 0 0 0 0 0 0 0 0 0 0 0 0 0 0 0 0 0 0 0 0 0 0 0 0 0 0 0 0 0 0 0 0 0 0 0 0 0 0 0 0
1 1 1 1 1 0 0 0 0 0 0 0 0 0 0 0 0 0 0 0 0 0 0 0 0 0 0 0 0 0 0 0 0 0 0 0 0 0 0 0 0 0 0
2 2 2 2 2 1 0 0 0 0 0 0 0 0 0 0 0 0 0 0 0 0 0 0 0 0 0 0 0 0 0 0 0 0 0 0 0 0 0 0 0 0 0
2 3 3 3 3 2 1 1 0 0 0 0 0 0 0 0 0 0 0 0 0 0 0 0 0 0 0 0 0 0 0 0 0 0 0 0 0 0 0 0 0 0 0
1 1 2 3 3 3 3 2 1 1 0 0 0 0 0 0 0 0 0 0 0 0 0 0 0 0 0 0 0 0 0 0 0 0 0 0 0 0 0 0 0 0 0
0 0 1 3 3 3 3 3 3 2 1 0 0 0 0 0 0 0 0 0 0 0 0 0 0 0 0 0 0 0 0 0 0 0 0 0 0 0 0 0 0 0 0
1 0 1 3 3 3 3 3 3 3 2 1 0 0 0 0 0 0 0 0 0 0 0 0 0 0 0 0 0 0 0 0 0 0 0 0 0 0 0 0 0 0 0
1 1 2 3 3 3 3 3 3 3 3 2 1 0 0 0 0 0 0 0 0 0 0 0 0 0 0 0 0 0 0 0 0 0 0 0 0 0 0 0 0 0 0
1 1 2 2 2 2 3 3 3 3 3 3 2 1 0 0 0 0 0 0 0 0 0 0 0 0 0 0 0 0 0 0 0 0 0 0 0 0 0 0 0 0 0
0 0 1 1 1 1 1 2 2 2 2 2 2 1 0 0 0 0 0 0 0 0 0 0 0 0 0 0 0 0 0 0 0 0 0 0 0 0 0 0 0 0 0
0 0 0 0 0 0 0 1 1 0 1 1 1 1 1 0 0 0 0 0 0 0 0 0 0 0 0 0 0 0 0 0 0 0 0 0 0 0 0 0 0 0 0
0 0 0 0 0 0 0 0 0 0 0 0 1 1 1 0 0 0 0 0 0 0 0 0 0 0 0 0 0 0 0 0 0 0 0 0 0 0 0 0 0 0 0
0 0 0 0 0 0 0 0 0 0 0 0 0 0 0 0 0 0 0 0 0 0 0 0 0 0 0 0 0 0 0 0 0 0 0 0 0 0 0 0 0 0 0
0 0 0 0 0 0 0 0 0 0 0 0 0 0 0 0 0 0 0 0 0 0 0 0 0 0 0 0 0 0 0 0 0 0 0 0 0 0 0 0 0 0 0
0 0 0 0 0 0 0 0 0 0 0 0 0 0 0 0 0 0 0 0 0 0 0 0 0 0 0 0 0 0 0 0 0 0 0 0 0 0 0 0 0 0 0
0 0 0 0 0 0 0 0 0 0 0 0 0 0 0 0 0 0 0 0 0 0 0 0 0 0 0 0 0 0 0 0 0 0 0 0 0 0 0 0 0 0 0
Wind_Speed
2 1 1 1 1 1 1 2 2 2 2 3 3 4 4 3 3 3 3 7 8 9 9 10 10 11 12 12 12 13 13 14 14 14 14 14 15 15 16 15 15 15 15
2 2 2 2 2 2 2 2 2 2 2 2 3 4 4 3 3 4 3 5 8 8 8 8 9 10 11 12 12 13 14 14 14 14 14 14 15 15 15 16 16 16 16
2 2 2 2 2 2 2 1 1 1 1 2 3 3 3 3 3 3 3 3 4 7 8 8 8 9 10 11 12 12 13 14 14 14 15 15 16 16 16 16 16 16 16
2 2 1 1 1 1 1 1 1 1 1 2 3 3 2 2 3 3 3 3 3 3 5 7 7 8 9 10 11 12 12 12 13 14 15 16 16 16 16 16 16 16 16
2 2 1 1 1 0 1 1 0 1 1 2 3 2 2 2 3 3 3 3 3 3 3 5 8 9 9 10 10 11 12 12 12 12 14 15 15 15 15 16 17 17 17
1 1 1 1 1 0 0 0 1 1 1 2 3 3 2 2 2 3 3 3 3 4 4 4 4 6 9 10 10 11 12 12 13 13 14 15 14 14 14 15 16 17 17
1 2 1 1 1 1 1 1 1 1 1 1 1 2 2 2 2 2 2 3 3 4 4 4 3 3 4 8 10 11 12 12 13 13 14 14 13 14 14 14 15 16 17
1 1 1 1 1 1 0 0 0 0 1 1 1 1 3 3 2 2 2 2 3 3 4 5 4 4 4 4 6 11 11 12 12 12 13 13 13 13 14 15 15 15 16
1 1 1 1 1 1 1 1 1 1 1 0 1 1 0 2 3 3 3 3 3 3 4 4 5 5 5 4 5 8 11 11 11 12 12 12 12 13 14 14 14 15 15
1 1 1 1 1 1 1 2 1 1 1 1 0 1 1 2 1 3 3 3 3 4 4 4 4 5 5 4 6 9 10 10 11 12 12 12 12 12 13 13 13 14 15
2 1 1 1 1 1 2 1 1 1 1 1 1 1 1 1 2 2 4 4 4 3 4 4 4 4 5 4 4 7 10 9 9 10 10 11 11 11 12 13 13 14 15
2 2 1 1 1 1 1 1 1 1 1 2 2 2 2 1 2 2 4 4 5 4 4 4 4 4 4 4 6 8 8 8 8 8 8 9 11 11 11 12 12 13 14
2 3 2 2 1 2 1 1 1 1 2 2 2 2 2 2 2 2 3 3 4 4 3 3 3 4 4 4 5 9 7 7 7 8 8 8 9 10 10 11 11 12 12
3 3 3 2 2 1 1 1 1 1 1 1 2 2 2 2 3 3 2 2 3 3 3 4 3 3 3 4 5 7 5 7 7 8 8 8 8 8 8 8 9 10 10
3 3 2 2 2 2 1 1 1 1 1 1 2 2 2 2 2 3 3 3 2 4 4 4 3 4 4 4 5 5 5 6 7 8 8 8 8 8 8 8 8 8 8
3 3 2 2 2 2 1 1 1 1 1 2 2 2 2 2 3 3 3 3 3 3 4 4 4 5 5 5 6 5 5 7 7 7 7 6 6 7 7 8 8 8 9
3 3 3 2 2 2 1 1 1 1 1 2 2 2 3 3 2 2 2 2 3 3 5 5 3 5 5 6 6 5 4 4 4 6 7 7 6 7 8 8 9 9 10
3 2 3 2 2 2 1 2 2 1 1 2 3 3 4 3 3 3 2 3 3 3 4 6 5 5 5 6 6 6 5 4 4 6 7 7 7 8 8 8 9 10 10
2 2 2 2 2 2 2 2 2 2 2 2 3 3 4 4 4 3 3 3 3 3 3 4 6 4 4 4 5 5 5 4 4 4 5 7 7 8 8 8 9 9 10
2 2 2 2 2 2 2 2 2 2 2 3 3 3 4 4 4 4 4 4 3 3 3 4 5 4 4 4 4 4 4 4 4 4 4 4 5 7 7 8 9 9 9
2 2 2 2 2 2 2 2 2 2 2 3 3 4 4 4 5 4 3 3 3 3 3 3 4 4 4 4 4 3 4 4 4 3 3 3 3 3 4 6 7 8 9
2 2 2 2 3 2 3 3 1 1 2 3 4 4 5 4 5 6 6 5 3 3 4 4 4 5 6 5 4 4 4 3 4 2 2 4 3 3 4 3 5 7 9
2 2 3 3 3 3 3 2 2 1 2 3 3 4 4 4 5 5 6 6 5 5 5 4 5 6 6 5 4 4 4 4 4 3 2 4 3 4 3 3 5 6 7
2 2 3 3 3 3 3 2 2 1 2 3 3 3 4 5 4 5 5 5 5 5 5 4 5 6 6 5 4 4 4 4 4 3 3 3 3 4 4 3 4 5 6
3 3 3 3 2 4 4 3 2 1 2 3 3 3 3 4 5 5 4 5 6 5 4 4 5 6 6 6 4 2 2 2 3 3 2 2 3 3 3 3 3 3 4
3 3 3 2 2 3 4 3 2 1 2 3 3 3 4 4 5 5 3 3 5 6 6 6 5 5 5 4 3 1 2 2 2 3 2 2 2 2 2 2 2 2 3
Wind_Direction
192 218 237 241 251 250 249 253 251 256 264 266 261 259 260 256 257 258 266 272 275 274 267 256 254 252 248 245 242 239 235 233 231 227 225 225 225 223 219 215 214 213 211
184 203 225 226 245 252 243 237 235 249 260 262 269 268 258 256 257 257 259 270 276 281 276 266 260 258 253 251 247 243 239 236 234 230 227 228 229 227 224 220 217 215 213
201 201 219 228 235 245 245 241 249 258 268 274 278 276 265 261 269 270 267 267 275 277 277 271 267 265 261 258 252 248 246 239 236 233 229 228 229 229 226 223 220 218 216
197 182 195 235 249 240 230 233 238 266 281 291 288 286 281 271 268 266 264 263 265 275 280 277 272 271 267 263 260 255 251 245 242 239 235 232 230 230 227 225 222 221 220
192 169 188 212 211 202 226 247 241 237 268 288 281 271 272 265 267 270 270 269 266 269 271 282 279 275 272 268 265 261 254 248 245 245 244 237 231 230 230 228 225 222 221
189 165 188 193 170 164 285 276 247 247 251 275 287 292 277 270 261 259 267 275 276 278 279 277 281 279 275 272 271 266 259 254 249 244 246 243 234 230 229 229 227 224 220
181 161 183 188 174 187 233 266 242 281 289 312 339 322 312 291 275 261 271 275 284 287 288 282 277 278 279 276 279 276 267 260 253 250 246 245 239 233 230 228 226 224 222
208 177 170 193 179 168 233 309 106 178 316 33 73 7 333 330 319 295 284 277 290 296 292 286 281 274 274 274 279 280 276 267 258 253 250 246 240 235 231 229 225 225 223
235 202 192 192 192 181 212 237 195 166 232 302 106 128 161 280 305 300 281 290 299 296 291 287 279 274 268 265 271 276 279 274 266 260 253 247 243 238 233 228 225 224 224
282 246 207 187 193 202 214 235 198 193 178 238 296 221 217 210 254 302 303 294 299 295 294 293 288 282 275 268 268 274 280 277 270 264 258 249 244 242 236 231 229 228 229
307 308 261 208 217 224 222 218 215 200 186 199 214 226 230 241 224 246 291 307 309 294 291 288 285 285 283 274 270 273 276 273 269 266 262 253 247 244 238 235 233 232 231
313 312 303 259 236 232 236 237 216 197 197 204 213 209 202 218 234 231 258 287 298 300 301 289 282 284 285 281 282 290 283 276 269 262 263 258 248 243 239 237 236 237 235
300 287 288 274 257 245 238 216 206 216 204 211 227 231 225 230 227 227 252 273 281 289 294 284 274 282 286 288 290 293 290 284 276 268 260 259 251 245 242 240 238 238 241
276 287 287 274 265 254 238 206 226 244 220 230 245 241 246 248 228 221 225 250 287 287 284 284 289 282 286 293 288 288 290 287 280 271 259 254 249 241 240 243 243 241 238
280 293 298 275 265 259 242 195 229 259 248 248 259 262 261 262 250 238 228 222 239 286 295 288 288 292 298 295 292 291 287 291 285 275 257 250 243 239 237 235 237 237 233
289 290 298 282 262 254 239 211 232 253 255 269 262 270 275 270 269 253 240 235 227 240 272 283 280 293 303 302 298 291 286 291 286 279 271 260 247 238 235 234 232 233 233
288 288 283 276 261 258 238 224 250 249 265 289 295 288 291 284 280 270 254 245 238 232 261 284 284 296 298 300 305 297 288 280 283 276 273 264 257 249 241 238 236 235 235
284 288 287 283 274 263 249 232 251 269 275 296 305 309 306 310 302 288 272 263 257 241 247 282 296 299 294 300 301 301 298 289 278 273 264 262 258 253 245 241 240 237 235
302 307 304 290 277 263 258 252 246 264 281 285 295 300 303 310 303 299 290 283 279 273 256 271 289 293 293 299 307 303 300 291 286 272 260 256 254 253 251 247 243 238 235
300 309 314 291 283 272 265 273 274 283 296 299 298 291 289 288 286 290 290 288 286 285 278 274 283 294 294 298 298 300 306 301 298 291 280 267 257 252 250 250 248 243 236
302 302 320 311 313 292 269 274 267 277 294 304 306 301 297 300 291 282 282 282 283 281 283 282 287 294 300 305 301 298 298 302 298 284 291 285 274 268 262 255 252 246 241
325 332 325 310 314 305 303 294 256 265 280 292 303 311 308 309 316 309 301 295 276 270 278 275 280 287 291 292 293 295 298 306 300 302 300 296 286 275 271 264 259 252 244
328 327 318 315 304 296 303 304 300 270 281 289 296 305 311 318 323 318 314 312 300 280 260 254 271 278 283 290 290 291 289 287 281 292 294 287 289 285 281 277 267 262 254
322 313 313 309 300 299 317 329 337 325 303 300 298 297 302 314 324 322 318 324 319 311 294 273 267 276 280 285 277 273 279 284 281 274 256 271 283 281 290 289 281 267 258
319 313 312 314 311 311 330 346 4 336 317 320 323 321 315 312 319 328 329 325 323 324 321 309 293 293 296 293 289 291 294 299 300 294 255 258 278 288 289 288 295 286 274
305 317 327 324 311 308 328 345 2 330 326 330 333 330 327 323 321 328 324 316 316 316 326 332 332 325 319 319 302 264 276 284 294 292 285 273 278 283 287 279 300 307 295